Showing default

VNREDSAT 1, 39160

Orbit data source: Space-Track

VNREDSAT 1, 39160 is a payload satellite owned by VAST (VN) in SSO that was launched on Tue, 07 May 2013 UTC via a VEGA launch vehicle from the French Guiana (FRGUI). Payload-class satellites include a variety of spacecraft equipped with specific instruments for various scientific and technological missions. These include communications satellites like Starlink; space stations such as the ISS; scientific satellites like the Hubble; Earth observation satellites from companies like Planet Labs, Umbra, and HawkEye 360; GPS; miniature CubeSats for education and research; and military/defense satellites.

Loading next visibility...
Identifier
39160, 2013-021B
Orbit
SSO
Country
Flag of VNVN / VTNM
Related business
Manufacturer
Astrium/Toulouse
Mission
Operational Civil Imaging
Bus & Motor
ASTROSAT-100, AOCS
Mass
115 kg wet, 115 kg dry
Launch date (UTC)
2013-05-07 (13 years ago)
Launch vehicle
VEGA
Launch site
French Guiana (FRGUI)
Object type
Payload
Rocket body
Debris
Shape & HBR
Box + 1 Pan, 1.0 m
Radar Cross Section
1.032 m², Medium (>0.1 m² and < 1m²)

Expand to show TLE details & history
Last TLE update: 1 day ago

TLE from 1 day ago
0 VNREDSAT 1
1 39160U 13021B   26172.46066258  .00000527  00000-0  10708-3 0  9994
2 39160  97.9074 225.7135 0001739  88.4523 271.6880 14.64861023700916
Epoch: 2026-06-21T11:03Z
TLE epoch observation values (Epoch: 2026-06-21T11:03:21.246Z)
Latitude
-0.00003°
Longitude
150.21437°
Altitude
680.486 km
Speed
7.516 km/s
True Right ascension
15h 02m 51s
True Declination
0° 00' 00"
Sunlit
Object was in full shadow at epoch
Visualization orbit readout
Latitude
Unknown
Longitude
Unknown
Altitude
Unknown
Speed
Unknown
Apparent Right ascension
Unknown
Apparent Declination
Unknown
Sunlit
N/A
Visualization observer readout
Local Sidereal Time
23:08:02
Azimuth
Unknown
Elevation
Unknown
Doppler factor
Unknown
Orbital elements
Apogee altitude
675.81 km
Perigee altitude
673.357 km
Semi-major axis
7,052.72 km
Eccentricity
0.00017
Inclination
97.9074°
RAAN
225.7135°
Arg. of periapsis
88.4523°
True anomaly
271.66808°
Mean anomaly
271.688°
Eccentric anomaly
271.67804°
Mean motion
3.66444 °/min
Orbital period
98.24 mins
BSTAR
0.00010708
Loading maneuver chart data...
Computing Atmospheric mass density...
Loading historical data...
Loading historical data...
Loading historical data...
Loading historical data...
Loading historical data...
Loading historical data...
Loading historical data...

Documentation

Showing up to 5 results
|